Bismarck, ND

7:32 AM CDT on September 24, 2017 (GMT -0500)
Bismarck Municipal

Weather History for KBIS - July, 2014

Change the Weather History Date:

Friday, July 4, 2014

  Actual Average Record
Temperature  
Mean Temperature 73 °F 69 °F  
Max Temperature 85 °F 83 °F 102 °F (1989)
Min Temperature 60 °F 56 °F 36 °F (1967)
Degree Days  
Heating Degree Days 0 1  
Month to date heating degree days 12 4  
Since 1 June heating degree days 106 97  
Since 1 July heating degree days 12 4  
Cooling Degree Days 8 5  
Month to date cooling degree days 8 20  
Year to date cooling degree days 112 120  
Since 1 June cooling degree days 61 103  
Growing Degree Days 22 (Base 50)    
Moisture  
Dew Point 64 °F    
Average Humidity 76    
Maximum Humidity 93    
Minimum Humidity 59    
Precipitation  
Precipitation 0.09 in 0.10 in 1.14 in (1901)
Month to date precipitation 0.14 0.39  
Year to date precipitation 7.35 9.03  
Snow  
Snow 0.00 in - - ()
Month to date snowfall 0.0  
Since 1 June snowfall 0.0  
Snow Depth 0.00 in    
Sea Level Pressure  
Sea Level Pressure 29.92 in    
Wind  
Wind Speed 12 mph (SSE)    
Max Wind Speed 29 mph    
Max Gust Speed 35 mph    
Visibility 10 miles    
Events Rain , Thunderstorm    
T = Trace of Precipitation, MM = Missing Value Source: NWS Daily Summary

Daily Weather History Graph

Daily Weather History Graph

Search for Another Location

Airport or City:

Trip Planner

Search our weather history database for the weather conditions in past years. The results will help you decide how hot, cold, wet, or windy it might be!

Date:

Astronomy

Jul. 04, 2014 Rise Set
Actual Time 5:54 AM CDT 9:39 PM CDT
Civil Twilight 5:15 AM CDT 10:18 PM CDT
Nautical Twilight 4:23 AM CDT 11:11 PM CDT
Astronomical Twilight 3:08 AM CDT 12:25 AM CDT
Moon 1:20 PM CDT (7/4) 12:37 AM CDT (7/4)
Length of Visible Light 17h 02m
Length of Day
15h 44m
Waxing Crescent, 42% of the Moon is Illuminated
Jul 4
Waxing Crescent
Jul 5
First Quarter
Jul 12
Full
Jul 18
Last Quarter
Jul 26
New

Hourly Weather History & Observations

Time (CDT) Temp. Heat Index Dew Point Humidity Pressure Visibility Wind Dir Wind Speed Gust Speed Precip Events Conditions
12:52 AM 61.0 °F - 53.1 °F 75% 30.06 in 10.0 mi ESE 5.8 mph - N/A   Clear
1:52 AM 62.1 °F - 54.0 °F 75% 30.04 in 10.0 mi East 9.2 mph - N/A   Scattered Clouds
2:52 AM 63.0 °F - 55.0 °F 75% 30.02 in 10.0 mi East 9.2 mph - N/A   Partly Cloudy
3:52 AM 60.1 °F - 55.0 °F 83% 30.00 in 10.0 mi East 9.2 mph - N/A   Partly Cloudy
4:52 AM 60.1 °F - 55.9 °F 86% 29.98 in 10.0 mi ENE 9.2 mph - N/A   Partly Cloudy
5:52 AM 60.1 °F - 55.9 °F 86% 29.96 in 10.0 mi East 10.4 mph - N/A   Mostly Cloudy
6:52 AM 62.1 °F - 57.9 °F 86% 29.95 in 10.0 mi SE 6.9 mph - N/A   Clear
7:52 AM 66.0 °F - 60.1 °F 81% 29.93 in 10.0 mi SSE 10.4 mph - N/A   Clear
8:52 AM 71.1 °F - 62.1 °F 73% 29.93 in 10.0 mi South 9.2 mph - N/A   Clear
9:52 AM 68.0 °F - 62.6 °F 83% 29.96 in 10.0 mi Calm Calm - N/A Rain Light Rain
10:04 AM 69.1 °F - 63.0 °F 81% 29.96 in 10.0 mi South 6.9 mph - 0.00 in Rain , Thunderstorm Light Rain
10:16 AM 68.0 °F - 64.0 °F 87% 29.97 in 9.0 mi South 13.8 mph - 0.01 in Rain , Thunderstorm Light Thunderstorms and Rain
10:52 AM 66.9 °F - 63.0 °F 87% 29.94 in 7.0 mi SSE 17.3 mph - 0.07 in Rain , Thunderstorm Light Rain
11:04 AM 66.9 °F - 64.0 °F 90% 29.91 in 10.0 mi South 19.6 mph - 0.01 in Rain Light Rain
11:52 AM 73.0 °F - 68.0 °F 84% 29.88 in 10.0 mi South 18.4 mph - 0.02 in   Scattered Clouds
12:52 PM 79.0 °F - 68.0 °F 69% 29.87 in 10.0 mi SSE 24.2 mph 34.5 mph N/A   Clear
1:52 PM 80.1 °F 82.7 °F 68.0 °F 67% 29.87 in 10.0 mi South 16.1 mph 28.8 mph N/A   Mostly Cloudy
2:52 PM 82.9 °F 86.5 °F 69.1 °F 63% 29.87 in 10.0 mi South 17.3 mph 21.9 mph N/A   Clear
3:52 PM 84.0 °F 88.4 °F 70.0 °F 63% 29.86 in 10.0 mi South 18.4 mph - N/A   Clear
4:52 PM 84.9 °F 88.2 °F 68.0 °F 57% 29.86 in 10.0 mi South 17.3 mph 26.5 mph N/A   Clear
5:52 PM 84.9 °F 88.8 °F 69.1 °F 59% 29.85 in 10.0 mi SSW 19.6 mph 25.3 mph 0.00 in Rain Light Rain
6:52 PM 84.9 °F 89.4 °F 70.0 °F 61% 29.83 in 10.0 mi South 15.0 mph - 0.00 in   Clear
7:52 PM 84.0 °F 88.4 °F 70.0 °F 63% 29.83 in 10.0 mi South 13.8 mph - N/A   Clear
8:52 PM 80.1 °F 83.6 °F 71.1 °F 74% 29.83 in 10.0 mi South 8.1 mph - N/A   Clear
9:52 PM 75.9 °F - 70.0 °F 82% 29.83 in 10.0 mi SSE 5.8 mph - N/A   Clear
10:52 PM 71.1 °F - 69.1 °F 93% 29.85 in 10.0 mi SSE 8.1 mph - N/A   Clear
11:52 PM 75.9 °F - 70.0 °F 82% 29.83 in 7.0 mi South 5.8 mph - N/A   Clear